Weather Roundup
Issued by NWS

Home | Current Version | Previous Version | Graphics & Text | Print | Product List | Glossary Off
Versions: 1 2 3 4 5 6 7 8 9 10 11 12 13 14 15 16 17 18 19 20 21 22 23 24 25 26 27 28 29 30 31 32 33 34 35 36 37 38 39 40 41 42 43 44 45 46 47 48 49 50

698
NZUS93 KARX 011010
HRRWXR

CURRENT HOURLY OBSERVATIONS ACROSS
MUCH OF THE UPPER MISSISSIPPI VALLEY
NATIONAL WEATHER SERVICE LA CROSSE WI
400 AM CST WED MAR 01 2017


...SOUTHEAST MINNESOTA...


CITY           SKY/WX    TMP DP  RH WIND       PRES   REMARKS
ROCHESTER      LGT SNOW  30  30 100 N14       29.62S VSB 3/4 WCI  19
ROCHESTER/MAYO CLOUDY    31  31 100 NW7       29.63F WCI  24
WINONA         LGT RAIN  34  32  93 NW9       29.63S WCI  26
AUSTIN         CLOUDY    30  28  93 NW13G20   29.65R WCI  20
ALBERT LEA     MIX PCPN  30  30 100 N12G17    29.67R WCI  21
DODGE CENTER   NOT AVBL
PRESTON        LGT SNOW  31  30  96 N12       29.61S VSB 1   WCI  22
OWATONNA       NOT AVBL
FARIBAULT      CLOUDY    30  27  86 N9G18     29.70R WCI  22
$$

...ELSEWHERE IN MINNESOTA...


CITY           SKY/WX    TMP DP  RH WIND       PRES   REMARKS
MINNEAPOLIS    CLOUDY    29  23  78 N13       29.73R WCI  19
INTNL FALLS    CLOUDY    12   1  61 NE6       29.90S WCI   3
DULUTH         CLOUDY    21  15  78 N8        29.79S WCI  11
RED WING       LGT SNOW  30  27  86 N7        29.67R WCI  23
REDWOOD FALLS  CLOUDY    32  26  78 N10       29.78R WCI  24
MANKATO        FLURRIES  30  26  85 N20       29.73R WCI  17
WORTHINGTON    LGT SNOW  29  28  96 N18G25    29.77R FOG     WCI  16
FAIRMONT       CLOUDY    30  28  92 N21       29.73R WCI  17
$$

...SOUTHWEST WISCONSIN...


CITY           SKY/WX    TMP DP  RH WIND       PRES   REMARKS
LA CROSSE      CLOUDY    37  33  85 N8        29.59S WCI  31
PRAIRIE DU CHI LGT RAIN  39  38  97 NW6       29.55R WCI  35
BOSCOBEL       LGT RAIN  40  38  93 N3        29.54S FOG
LONE ROCK      LGT RAIN  39  36  89 N8        29.54R WCI  33
PLATTEVILLE    CLOUDY    39  39 100 N14       29.51R WCI  31
FORT MC COY    CLOUDY    33  33  99 N7        29.58S WCI  27
CAMP DOUGLAS   CLOUDY    34  34 100 NW7       29.55S WCI  28
MAUSTON-NEW LI DRIZZLE   36  35  96 N6        29.54S WCI  31
VIROQUA        CLOUDY    35  35 100 N8        29.54S WCI  29
WIS DELLS      CLOUDY    35  34  99 N6        29.52R WCI  30
$$

...ELSEWHERE IN WISCONSIN...


CITY           SKY/WX    TMP DP  RH WIND       PRES   REMARKS
MILWAUKEE      DRIZZLE   39  36  89 N16       29.48S WCI  30
MADISON        CLOUDY    37  35  92 N13       29.50R WCI  29
GREEN BAY      LGT RAIN  34  33  96 N16       29.52F WCI  24
EAU CLAIRE     LGT SNOW  30  26  85 N9        29.64R FOG     WCI  22
BLACK RVR FLS  CLOUDY    34  34 100 N6        29.59S WCI  29
MEDFORD        CLOUDY    28  25  86 N18       29.56F WCI  16
WAUSAU         CLOUDY    30  27  88 N8        29.54F WCI  22
WIS RAPIDS     CLOUDY    33  33 100 N12       29.56R WCI  24
MARSHFIELD     CLOUDY    31  27  85 NE10      29.56R WCI  22
RICE LAKE      LGT SNOW  29  25  87 N9G20     29.69R WCI  20
$$

...NORTHEAST IOWA...


CITY           SKY/WX    TMP DP  RH WIND       PRES   REMARKS
WATERLOO       MIX PCPN  35  33  92 NW13      29.62R WCI  26
DUBUQUE        FOG       39  39 100 N12       29.51R VSB 1   WCI  32
DECORAH        LGT RAIN  36  34  93 NW10      29.57R WCI  28
MASON CITY     FRZ RAIN  32  30  92 NW16      29.68R FOG     WCI  21
CHARLES CITY   LGT RAIN  34  34 100 NW15      29.63R WCI  24
OELWEIN        LGT RAIN  36  36 100 NW16      29.59R WCI  26
$$

...ELSEWHERE IN IOWA...


CITY           SKY/WX    TMP DP  RH WIND       PRES   REMARKS
DES MOINES     DRIZZLE   37  34  89 NW18G26   29.71R FOG     WCI  27
IOWA CITY      CLOUDY    41  39  93 NW17      29.58R
FORT DODGE     CLOUDY    32  28  86 NW8       29.72S WCI  25
MARSHALLTOWN   LGT RAIN  35  34  96 NW16      29.66R FOG     WCI  25
CEDAR RAPIDS   LGT RAIN  38  38 100 NW22      29.56S FOG     WCI  27
$$

...NORTHERN ILLINOIS...


CITY           SKY/WX    TMP DP  RH WIND       PRES   REMARKS
CHICAGO-OHARE  FOG       44  42  93 N14       29.44R VSB 1/4
CHICAGO-MIDWAY CLOUDY    52  49  89 SW6       29.42S FOG
MOLINE         LGT RAIN  46  43  89 W15       29.52R FOG
ROCKFORD       FOG       43  41  93 N8        29.49R VSB 1
PEORIA         CLOUDY    51  49  92 W13G23    29.51R
$$

NOTE: "FAIR" INDICATES FEW OR NO CLOUDS BELOW 12,000 FEET WITH NO
SIGNIFICANT WEATHER AND/OR OBSTRUCTIONS TO VISIBILITY. WIND
SPEEDS ARE IN MILES-PER-HOUR.




USA.gov is the U.S. government's official web portal to all federal, state and local government web resources and services.